Year,Month,Day,Hour,Minute,Value (Times are PST for temperature in C)
2011,06,03,00,02,10.70
2011,06,03,00,04,10.70
2011,06,03,00,05,10.70
2011,06,03,00,06,10.70
2011,06,03,00,07,10.70
2011,06,03,00,08,10.70
2011,06,03,00,09,10.70
2011,06,03,00,10,10.70
2011,06,03,00,11,10.70
2011,06,03,00,13,10.70
2011,06,03,00,14,10.70
2011,06,03,00,15,10.70
2011,06,03,00,16,10.70
2011,06,03,00,17,10.70
2011,06,03,00,19,10.70
2011,06,03,00,20,10.70
2011,06,03,00,21,10.70
2011,06,03,00,22,10.80
2011,06,03,00,24,10.80
2011,06,03,00,25,10.80
2011,06,03,00,26,10.80
2011,06,03,00,27,10.80
2011,06,03,00,29,10.80
2011,06,03,00,30,10.80
2011,06,03,00,31,10.80
2011,06,03,00,32,10.80
2011,06,03,00,33,10.80
2011,06,03,00,35,10.80
2011,06,03,00,36,10.80
2011,06,03,00,37,10.80
2011,06,03,00,38,10.80
2011,06,03,00,39,10.80
2011,06,03,00,41,10.80
2011,06,03,00,42,10.80
2011,06,03,00,43,10.80
2011,06,03,00,44,10.80
2011,06,03,00,45,10.80
2011,06,03,00,47,10.80
2011,06,03,00,48,10.80
2011,06,03,00,49,10.80
2011,06,03,00,50,10.80
2011,06,03,00,52,10.80
2011,06,03,00,53,10.80
2011,06,03,00,54,10.80
2011,06,03,00,55,10.80
2011,06,03,00,56,10.80
2011,06,03,00,58,10.80
2011,06,03,00,59,10.80
2011,06,03,01,00,10.80
2011,06,03,01,01,10.80
2011,06,03,01,03,10.80
2011,06,03,01,04,10.70
2011,06,03,01,05,10.70
2011,06,03,01,06,10.70
2011,06,03,01,07,10.70
2011,06,03,01,09,10.70
2011,06,03,01,10,10.70
2011,06,03,01,11,10.70
2011,06,03,01,13,10.70
2011,06,03,01,14,10.70
2011,06,03,01,15,10.70
2011,06,03,01,17,10.70
2011,06,03,01,18,10.70
2011,06,03,01,19,10.70
2011,06,03,01,20,10.70
2011,06,03,01,22,10.60
2011,06,03,01,23,10.60
2011,06,03,01,24,10.60
2011,06,03,01,25,10.60
2011,06,03,01,27,10.60
2011,06,03,01,28,10.60
2011,06,03,01,29,10.60
2011,06,03,01,30,10.60
2011,06,03,01,31,10.60
2011,06,03,01,33,10.60
2011,06,03,01,34,10.60
2011,06,03,01,35,10.60
2011,06,03,01,36,10.60
2011,06,03,01,37,10.60
2011,06,03,01,39,10.60
2011,06,03,01,40,10.60
2011,06,03,01,41,10.50
2011,06,03,01,42,10.50
2011,06,03,01,43,10.50
2011,06,03,01,44,10.50
2011,06,03,01,45,10.50
2011,06,03,01,46,10.50
2011,06,03,01,47,10.50
2011,06,03,01,48,10.50
2011,06,03,01,49,10.50
2011,06,03,01,50,10.50
2011,06,03,01,52,10.50
2011,06,03,01,53,10.50
2011,06,03,01,54,10.50
2011,06,03,01,55,10.50
2011,06,03,01,57,10.40
2011,06,03,01,58,10.40
2011,06,03,01,59,10.40
2011,06,03,02,00,10.50
2011,06,03,02,01,10.50
2011,06,03,02,02,10.50
2011,06,03,02,03,10.50
2011,06,03,02,04,10.50
2011,06,03,02,05,10.50
2011,06,03,02,06,10.60
2011,06,03,02,07,10.60
2011,06,03,02,08,10.60
2011,06,03,02,09,10.60
2011,06,03,02,10,10.60
2011,06,03,02,11,10.60
2011,06,03,02,13,10.60
2011,06,03,02,14,10.60
2011,06,03,02,15,10.60
2011,06,03,02,16,10.70
2011,06,03,02,17,10.70
2011,06,03,02,18,10.70
2011,06,03,02,19,10.70
2011,06,03,02,20,10.70
2011,06,03,02,21,10.70
2011,06,03,02,23,10.70
2011,06,03,02,24,10.70
2011,06,03,02,25,10.70
2011,06,03,02,26,10.70
2011,06,03,02,28,10.70
2011,06,03,02,29,10.70
2011,06,03,02,30,10.70
2011,06,03,02,31,10.70
2011,06,03,02,33,10.70
2011,06,03,02,34,10.70
2011,06,03,02,35,10.70
2011,06,03,02,36,10.70
2011,06,03,02,38,10.70
2011,06,03,02,39,10.70
2011,06,03,02,40,10.70
2011,06,03,02,41,10.70
2011,06,03,02,43,10.70
2011,06,03,02,44,10.70
2011,06,03,02,45,10.70
2011,06,03,02,46,10.70
2011,06,03,02,48,10.70
2011,06,03,02,49,10.70
2011,06,03,02,50,10.70
2011,06,03,02,52,10.70
2011,06,03,02,53,10.70
2011,06,03,02,54,10.70
2011,06,03,02,55,10.70
2011,06,03,02,56,10.70
2011,06,03,02,57,10.70
2011,06,03,02,58,10.70
2011,06,03,02,59,10.70
2011,06,03,03,00,10.70
2011,06,03,03,02,10.80
2011,06,03,03,03,10.80
2011,06,03,03,04,10.80
2011,06,03,03,05,10.80
2011,06,03,03,07,10.80
2011,06,03,03,08,10.80
2011,06,03,03,09,10.80
2011,06,03,03,11,10.80
2011,06,03,03,12,10.80
2011,06,03,03,13,10.80
2011,06,03,03,14,10.80
2011,06,03,03,15,10.80
2011,06,03,03,16,10.80
2011,06,03,03,17,10.80
2011,06,03,03,18,10.80
2011,06,03,03,19,10.80
2011,06,03,03,21,10.80
2011,06,03,03,22,10.80
2011,06,03,03,23,10.80
2011,06,03,03,24,10.80
2011,06,03,03,26,10.90
2011,06,03,03,27,10.80
2011,06,03,03,28,10.90
2011,06,03,03,29,10.80
2011,06,03,03,30,10.80
2011,06,03,03,32,10.90
2011,06,03,03,33,10.80
2011,06,03,03,34,10.90
2011,06,03,03,35,10.90
2011,06,03,03,36,10.90
2011,06,03,03,37,10.90
2011,06,03,03,38,10.90
2011,06,03,03,39,10.90
2011,06,03,03,40,10.90
2011,06,03,03,41,10.90
2011,06,03,03,42,10.90
2011,06,03,03,43,10.90
2011,06,03,03,44,10.90
2011,06,03,03,45,10.90
2011,06,03,03,46,10.90
2011,06,03,03,47,10.90
2011,06,03,03,48,10.90
2011,06,03,03,49,10.90
2011,06,03,03,50,10.90
2011,06,03,03,51,10.90
2011,06,03,03,52,10.90
2011,06,03,03,53,10.90
2011,06,03,03,54,10.90
2011,06,03,03,56,10.90
2011,06,03,03,57,10.90
2011,06,03,03,58,10.90
2011,06,03,03,59,10.90
2011,06,03,04,00,10.90
2011,06,03,04,01,10.90
2011,06,03,04,02,10.90
2011,06,03,04,03,10.90
2011,06,03,04,04,10.90
2011,06,03,04,05,10.90
2011,06,03,04,06,10.90
2011,06,03,04,07,10.90
2011,06,03,04,08,10.90
2011,06,03,04,09,10.90
2011,06,03,04,10,10.90
2011,06,03,04,12,10.90
2011,06,03,04,13,10.90
2011,06,03,04,14,10.90
2011,06,03,04,15,10.80
2011,06,03,04,16,10.80
2011,06,03,04,17,10.80
2011,06,03,04,18,10.80
2011,06,03,04,19,10.80
2011,06,03,04,20,10.80
2011,06,03,04,22,10.80
2011,06,03,04,23,10.80
2011,06,03,04,24,10.80
2011,06,03,04,25,10.80
2011,06,03,04,27,10.80
2011,06,03,04,28,10.80
2011,06,03,04,29,10.80
2011,06,03,04,30,10.70
2011,06,03,04,31,10.70
2011,06,03,04,32,10.70
2011,06,03,04,33,10.70
2011,06,03,04,34,10.70
2011,06,03,04,35,10.70
2011,06,03,04,36,10.60
2011,06,03,04,37,10.60
2011,06,03,04,39,10.60
2011,06,03,04,40,10.60
2011,06,03,04,41,10.60
2011,06,03,04,42,10.50
2011,06,03,04,43,10.50
2011,06,03,04,45,10.50
2011,06,03,04,46,10.40
2011,06,03,04,47,10.40
2011,06,03,04,49,10.40
2011,06,03,04,50,10.40
2011,06,03,04,51,10.40
2011,06,03,04,52,10.40
2011,06,03,04,53,10.40
2011,06,03,04,54,10.40
2011,06,03,04,55,10.40
2011,06,03,04,56,10.30
2011,06,03,04,57,10.40
2011,06,03,04,59,10.40
2011,06,03,05,00,10.40
2011,06,03,05,01,10.40
2011,06,03,05,02,10.40
2011,06,03,05,03,10.40
2011,06,03,05,04,10.40
2011,06,03,05,05,10.40
2011,06,03,05,06,10.40
2011,06,03,05,07,10.40
2011,06,03,05,08,10.40
2011,06,03,05,10,10.40
2011,06,03,05,11,10.40
2011,06,03,05,12,10.40
2011,06,03,05,13,10.40
2011,06,03,05,14,10.40
2011,06,03,05,16,10.30
2011,06,03,05,17,10.30
2011,06,03,05,18,10.30
2011,06,03,05,19,10.30
2011,06,03,05,21,10.30
2011,06,03,05,22,10.30
2011,06,03,05,23,10.40
2011,06,03,05,24,10.40
2011,06,03,05,25,10.40
2011,06,03,05,27,10.40
2011,06,03,05,28,10.40
2011,06,03,05,29,10.40
2011,06,03,05,30,10.40
2011,06,03,05,32,10.40
2011,06,03,05,33,10.50
2011,06,03,05,34,10.50
2011,06,03,05,35,10.50
2011,06,03,05,36,10.50
2011,06,03,05,37,10.50
2011,06,03,05,38,10.50
2011,06,03,05,39,10.60
2011,06,03,05,41,10.60
2011,06,03,05,42,10.60
2011,06,03,05,43,10.60
2011,06,03,05,44,10.60
2011,06,03,05,46,10.60
2011,06,03,05,47,10.70
2011,06,03,05,48,10.70
2011,06,03,05,49,10.70
2011,06,03,05,50,10.70
2011,06,03,05,51,10.70
2011,06,03,05,52,10.70
2011,06,03,05,53,10.70
2011,06,03,05,55,10.70
2011,06,03,05,56,10.70
2011,06,03,05,57,10.70
2011,06,03,05,58,10.70
2011,06,03,06,00,10.70
2011,06,03,06,01,10.70
2011,06,03,06,02,10.70
2011,06,03,06,03,10.70
2011,06,03,06,05,10.70
2011,06,03,06,06,10.70
2011,06,03,06,07,10.70
2011,06,03,06,08,10.60
2011,06,03,06,10,10.60
2011,06,03,06,11,10.60
2011,06,03,06,12,10.60
2011,06,03,06,13,10.60
2011,06,03,06,15,10.60
2011,06,03,06,16,10.60
2011,06,03,06,17,10.50
2011,06,03,06,19,10.40
2011,06,03,06,20,10.40
2011,06,03,06,21,10.30
2011,06,03,06,22,10.30
2011,06,03,06,23,10.30
2011,06,03,06,25,10.30
2011,06,03,06,26,10.20
2011,06,03,06,27,10.20
2011,06,03,06,29,10.20
2011,06,03,06,30,10.20
2011,06,03,06,31,10.20
2011,06,03,06,32,10.20
2011,06,03,06,34,10.20
2011,06,03,06,35,10.20
2011,06,03,06,36,10.20
2011,06,03,06,37,10.20
2011,06,03,06,39,10.20
2011,06,03,06,40,10.20
2011,06,03,06,41,10.10
2011,06,03,06,42,10.20
2011,06,03,06,43,10.20
2011,06,03,06,44,10.20
2011,06,03,06,45,10.20
2011,06,03,06,46,10.20
2011,06,03,06,47,10.20
2011,06,03,06,49,10.20
2011,06,03,06,50,10.20
2011,06,03,06,51,10.20
2011,06,03,06,53,10.20
2011,06,03,06,54,10.20
2011,06,03,06,55,10.20
2011,06,03,06,56,10.20
2011,06,03,06,58,10.20
2011,06,03,06,59,10.20
2011,06,03,07,00,10.20
2011,06,03,07,01,10.20
2011,06,03,07,02,10.20
2011,06,03,07,04,10.20
2011,06,03,07,05,10.20
2011,06,03,07,06,10.20
2011,06,03,07,07,10.30
2011,06,03,07,09,10.30
2011,06,03,07,10,10.30
2011,06,03,07,11,10.30
2011,06,03,07,13,10.30
2011,06,03,07,14,10.30
2011,06,03,07,15,10.30
2011,06,03,07,16,10.30
2011,06,03,07,17,10.30
2011,06,03,07,19,10.30
2011,06,03,07,20,10.30
2011,06,03,07,21,10.30
2011,06,03,07,22,10.30
2011,06,03,07,24,10.30
2011,06,03,07,25,10.30
2011,06,03,07,26,10.30
2011,06,03,07,27,10.40
2011,06,03,07,29,10.40
2011,06,03,07,30,10.40
2011,06,03,07,31,10.50
2011,06,03,07,33,10.50
2011,06,03,07,34,10.50
2011,06,03,07,35,10.50
2011,06,03,07,37,10.60
2011,06,03,08,13,11.50
2011,06,03,08,14,11.60
2011,06,03,08,16,11.60
2011,06,03,08,17,11.70
2011,06,03,08,18,11.80
2011,06,03,08,19,11.90
2011,06,03,08,21,11.90
2011,06,03,08,22,12.10
2011,06,03,08,23,12.10
2011,06,03,08,24,12.20
2011,06,03,08,26,12.20
2011,06,03,08,27,12.20
2011,06,03,08,28,12.30
2011,06,03,08,30,12.30
2011,06,03,08,31,12.40
2011,06,03,08,32,12.50
2011,06,03,08,33,12.60
2011,06,03,08,34,12.60
2011,06,03,08,36,12.70
2011,06,03,08,37,12.70
2011,06,03,08,38,12.70
2011,06,03,08,39,12.60
2011,06,03,08,41,12.60
2011,06,03,08,42,12.40
2011,06,03,08,43,12.30
2011,06,03,08,44,12.20
2011,06,03,08,46,12.10
2011,06,03,08,47,12.10
2011,06,03,08,49,12.10
2011,06,03,08,50,12.10
2011,06,03,08,52,12.20
2011,06,03,08,53,12.20
2011,06,03,08,54,12.20
2011,06,03,08,56,12.20
2011,06,03,08,58,12.10
2011,06,03,08,59,12.10
2011,06,03,09,01,12.10
2011,06,03,09,02,12.10
2011,06,03,09,03,12.20
2011,06,03,09,04,12.20
2011,06,03,09,06,12.20
2011,06,03,09,07,12.30
2011,06,03,09,08,12.30
2011,06,03,09,09,12.40
2011,06,03,09,11,12.50
2011,06,03,09,12,12.60
2011,06,03,09,13,12.70
2011,06,03,09,14,12.70
2011,06,03,09,16,12.80
2011,06,03,09,17,12.80
2011,06,03,09,18,12.90
2011,06,03,09,19,13.00
2011,06,03,09,20,13.10
2011,06,03,09,22,13.10
2011,06,03,09,23,13.10
2011,06,03,09,24,13.10
2011,06,03,09,26,13.20
2011,06,03,09,27,13.20
2011,06,03,09,28,13.30
2011,06,03,09,29,13.30
2011,06,03,09,30,13.40
2011,06,03,09,31,13.50
2011,06,03,09,32,13.60
2011,06,03,09,33,13.60
2011,06,03,09,35,13.70
2011,06,03,09,36,13.70
2011,06,03,09,37,13.80
2011,06,03,09,38,13.80
2011,06,03,09,40,13.90
2011,06,03,09,41,14.00
2011,06,03,09,42,14.00
2011,06,03,09,44,14.10
2011,06,03,09,45,14.20
2011,06,03,09,46,14.30
2011,06,03,09,48,14.40
2011,06,03,09,49,14.30
2011,06,03,09,50,14.30
2011,06,03,09,51,14.30
2011,06,03,09,53,14.40
2011,06,03,09,54,14.30
2011,06,03,09,55,14.20
2011,06,03,09,56,14.20
2011,06,03,09,57,14.10
2011,06,03,09,58,13.90
2011,06,03,09,59,13.80
2011,06,03,10,00,13.80
2011,06,03,10,01,13.70
2011,06,03,10,03,13.60
2011,06,03,10,04,13.50
2011,06,03,10,05,13.40
2011,06,03,10,07,13.40
2011,06,03,10,08,13.40
2011,06,03,10,09,13.40
2011,06,03,10,10,13.50
2011,06,03,10,11,13.60
2011,06,03,10,13,13.70
2011,06,03,10,14,13.80
2011,06,03,10,15,13.80
2011,06,03,10,16,13.90
2011,06,03,10,17,13.90
2011,06,03,10,18,14.00
2011,06,03,10,19,14.00
2011,06,03,10,21,14.00
2011,06,03,10,22,14.10
2011,06,03,10,23,14.00
2011,06,03,10,24,13.90
2011,06,03,10,26,13.90
2011,06,03,10,27,14.10
2011,06,03,10,28,14.10
2011,06,03,10,29,14.10
2011,06,03,10,31,14.10
2011,06,03,10,32,14.10
2011,06,03,10,33,14.10
2011,06,03,10,34,14.20
2011,06,03,10,35,14.20
2011,06,03,10,37,14.20
2011,06,03,10,38,14.30
2011,06,03,10,39,14.30
2011,06,03,10,40,14.40
2011,06,03,10,41,14.60
2011,06,03,10,42,14.70
2011,06,03,10,44,14.70
2011,06,03,10,45,14.70
2011,06,03,10,46,14.80
2011,06,03,10,47,14.80
2011,06,03,10,48,14.80
2011,06,03,10,49,14.70
2011,06,03,10,50,14.60
2011,06,03,10,51,14.50
2011,06,03,10,53,14.50
2011,06,03,10,54,14.60
2011,06,03,10,55,14.80
2011,06,03,10,57,14.90
2011,06,03,10,58,15.00
2011,06,03,10,59,14.90
2011,06,03,11,00,14.80
2011,06,03,11,02,14.70
2011,06,03,11,03,14.70
2011,06,03,11,04,14.70
2011,06,03,11,05,14.70
2011,06,03,11,07,14.70
2011,06,03,11,08,14.80
2011,06,03,11,09,14.90
2011,06,03,11,10,14.90
2011,06,03,11,12,15.00
2011,06,03,11,13,15.00
2011,06,03,11,14,14.90
2011,06,03,11,15,14.90
2011,06,03,11,17,14.90
2011,06,03,11,18,14.90
2011,06,03,11,19,14.90
2011,06,03,11,20,14.90
2011,06,03,11,21,14.90
2011,06,03,11,23,14.90
2011,06,03,11,24,14.90
2011,06,03,11,25,14.90
2011,06,03,11,26,14.80
2011,06,03,11,27,14.80
2011,06,03,11,28,14.80
2011,06,03,11,29,14.80
2011,06,03,11,30,14.80
2011,06,03,11,32,14.80
2011,06,03,11,33,14.90
2011,06,03,11,34,15.10
2011,06,03,11,35,15.20
2011,06,03,11,36,15.40
2011,06,03,11,38,15.50
2011,06,03,11,39,15.60
2011,06,03,11,40,15.60
2011,06,03,11,41,15.50
2011,06,03,11,43,15.50
2011,06,03,11,44,15.30
2011,06,03,11,45,15.30
2011,06,03,11,46,15.30
2011,06,03,11,47,15.30
2011,06,03,11,48,15.30
2011,06,03,11,49,15.30
2011,06,03,11,50,15.30
2011,06,03,11,51,15.30
2011,06,03,11,53,15.20
2011,06,03,11,54,15.20
2011,06,03,11,55,15.20
2011,06,03,11,56,15.30
2011,06,03,11,57,15.30
2011,06,03,11,58,15.30
2011,06,03,11,59,15.30
2011,06,03,12,00,15.30
2011,06,03,12,01,15.20
2011,06,03,12,03,15.20
2011,06,03,12,04,15.50
2011,06,03,12,05,15.60
2011,06,03,12,06,15.80
2011,06,03,12,08,15.80
2011,06,03,12,09,15.90
2011,06,03,12,10,15.90
2011,06,03,12,12,15.90
2011,06,03,12,13,15.80
2011,06,03,12,14,15.80
2011,06,03,12,15,15.80
2011,06,03,12,16,15.70
2011,06,03,12,18,15.80
2011,06,03,12,19,15.80
2011,06,03,12,20,15.90
2011,06,03,12,21,16.10
2011,06,03,12,23,16.30
2011,06,03,12,24,16.60
2011,06,03,12,25,16.80
2011,06,03,12,26,16.90
2011,06,03,12,28,17.00
2011,06,03,12,29,17.00
2011,06,03,12,31,16.90
2011,06,03,12,33,16.90
2011,06,03,12,34,16.90
2011,06,03,12,35,16.90
2011,06,03,12,36,16.90
2011,06,03,12,37,17.00
2011,06,03,12,38,17.10
2011,06,03,12,39,17.10
2011,06,03,12,41,17.10
2011,06,03,12,42,17.10
2011,06,03,12,43,17.10
2011,06,03,12,44,16.90
2011,06,03,12,45,16.90
2011,06,03,12,47,17.00
2011,06,03,12,48,17.10
2011,06,03,12,49,17.10
2011,06,03,12,50,17.10
2011,06,03,12,52,17.10
2011,06,03,12,53,17.10
2011,06,03,12,54,16.90
2011,06,03,12,55,16.80
2011,06,03,12,56,16.80
2011,06,03,12,58,16.60
2011,06,03,12,59,16.50
2011,06,03,13,00,16.50
2011,06,03,13,01,16.60
2011,06,03,13,02,16.70
2011,06,03,13,03,16.70
2011,06,03,13,04,16.70
2011,06,03,13,05,16.70
2011,06,03,13,08,16.40
2011,06,03,13,09,16.30
2011,06,03,13,10,16.30
2011,06,03,13,11,16.20
2011,06,03,13,13,16.20
2011,06,03,13,14,16.20
2011,06,03,13,15,16.20
2011,06,03,13,16,16.20
2011,06,03,13,17,16.20
2011,06,03,13,18,16.20
2011,06,03,13,19,16.40
2011,06,03,13,20,16.50
2011,06,03,13,22,16.40
2011,06,03,13,23,16.40
2011,06,03,13,24,16.40
2011,06,03,13,26,16.40
2011,06,03,13,27,16.40
2011,06,03,13,28,16.50
2011,06,03,13,29,16.60
2011,06,03,13,30,16.70
2011,06,03,13,31,16.60
2011,06,03,13,33,16.60
2011,06,03,13,34,16.60
2011,06,03,13,36,16.60
2011,06,03,13,37,16.60
2011,06,03,13,38,16.70
2011,06,03,13,39,16.70
2011,06,03,13,40,16.80
2011,06,03,13,42,16.90
2011,06,03,13,43,17.10
2011,06,03,13,44,17.20
2011,06,03,13,45,17.20
2011,06,03,13,46,17.30
2011,06,03,13,47,17.30
2011,06,03,13,48,17.30
2011,06,03,13,50,17.30
2011,06,03,13,51,17.20
2011,06,03,13,52,17.10
2011,06,03,13,54,16.90
2011,06,03,13,55,16.80
2011,06,03,13,56,16.60
2011,06,03,13,57,16.60
2011,06,03,13,59,16.60
2011,06,03,14,00,16.70
2011,06,03,14,01,16.70
2011,06,03,14,03,16.70
2011,06,03,14,04,16.70
2011,06,03,14,05,16.90
2011,06,03,14,06,17.00
2011,06,03,14,08,17.10
2011,06,03,14,09,17.20
2011,06,03,14,10,17.10
2011,06,03,14,11,17.10
2011,06,03,14,12,17.10
2011,06,03,14,14,17.10
2011,06,03,14,15,16.90
2011,06,03,14,16,16.80
2011,06,03,14,18,16.90
2011,06,03,14,19,17.10
2011,06,03,14,21,17.30
2011,06,03,14,22,17.50
2011,06,03,14,23,17.60
2011,06,03,14,24,17.70
2011,06,03,14,26,17.70
2011,06,03,14,27,17.70
2011,06,03,14,28,17.70
2011,06,03,14,29,17.70
2011,06,03,14,30,17.70
2011,06,03,14,32,17.80
2011,06,03,14,33,17.90
2011,06,03,14,34,17.90
2011,06,03,14,35,17.90
2011,06,03,14,37,17.80
2011,06,03,14,38,17.80
2011,06,03,14,39,17.80
2011,06,03,14,40,17.80
2011,06,03,14,42,17.70
2011,06,03,14,43,17.70
2011,06,03,14,44,17.70
2011,06,03,14,45,17.80
2011,06,03,14,46,17.80
2011,06,03,14,48,17.80
2011,06,03,14,49,17.90
2011,06,03,14,50,17.90
2011,06,03,14,51,17.90
2011,06,03,14,53,17.90
2011,06,03,14,54,17.90
2011,06,03,14,55,17.80
2011,06,03,14,56,17.80
2011,06,03,14,58,17.70
2011,06,03,14,59,17.70
2011,06,03,15,00,17.70
2011,06,03,15,01,17.70
2011,06,03,15,03,17.70
2011,06,03,15,04,17.70
2011,06,03,15,05,17.70
2011,06,03,15,06,17.80
2011,06,03,15,08,17.90
2011,06,03,15,09,18.00
2011,06,03,15,10,17.90
2011,06,03,15,11,17.80
2011,06,03,15,12,17.70
2011,06,03,15,13,17.60
2011,06,03,15,15,17.60
2011,06,03,15,16,17.60
2011,06,03,15,17,17.50
2011,06,03,15,18,17.40
2011,06,03,15,19,17.40
2011,06,03,15,20,17.40
2011,06,03,15,21,17.60
2011,06,03,15,22,17.60
2011,06,03,15,23,17.50
2011,06,03,15,25,17.40
2011,06,03,15,26,17.40
2011,06,03,15,27,17.50
2011,06,03,15,28,17.50
2011,06,03,15,30,17.30
2011,06,03,15,31,17.30
2011,06,03,15,32,17.30
2011,06,03,15,34,17.50
2011,06,03,15,36,17.60
2011,06,03,15,38,17.70
2011,06,03,15,39,17.70
2011,06,03,15,41,17.70
2011,06,03,15,42,17.70
2011,06,03,15,44,17.70
2011,06,03,15,47,17.80
2011,06,03,15,49,17.90
2011,06,03,15,51,18.00
2011,06,03,15,52,18.00
2011,06,03,15,54,18.20
2011,06,03,15,56,18.30
2011,06,03,15,58,18.30
2011,06,03,15,59,18.30
2011,06,03,16,01,18.10
2011,06,03,16,03,18.00
2011,06,03,16,04,17.90
2011,06,03,16,05,18.00
2011,06,03,16,06,18.10
2011,06,03,16,08,18.10
2011,06,03,16,09,18.10
2011,06,03,16,11,18.10
2011,06,03,16,13,18.00
2011,06,03,16,14,18.00
2011,06,03,16,16,18.10
2011,06,03,16,18,18.20
2011,06,03,16,19,18.30
2011,06,03,16,20,18.30
2011,06,03,16,21,18.30
2011,06,03,16,22,18.40
2011,06,03,16,23,18.40
2011,06,03,16,24,18.40
2011,06,03,16,25,18.30
2011,06,03,16,27,18.10
2011,06,03,16,28,18.10
2011,06,03,16,29,18.00
2011,06,03,16,30,18.00
2011,06,03,16,31,17.90
2011,06,03,16,33,18.10
2011,06,03,16,34,18.20
2011,06,03,16,36,18.30
2011,06,03,16,37,18.30
2011,06,03,16,38,18.30
2011,06,03,16,39,18.30
2011,06,03,16,41,18.40
2011,06,03,16,42,18.30
2011,06,03,16,43,18.30
2011,06,03,16,44,18.30
2011,06,03,16,46,18.30
2011,06,03,16,47,18.20
2011,06,03,16,49,18.10
2011,06,03,16,51,18.10
2011,06,03,16,52,18.10
2011,06,03,16,54,18.10
2011,06,03,16,56,18.20
2011,06,03,16,57,18.30
2011,06,03,16,59,18.50
2011,06,03,17,02,18.60
2011,06,03,17,03,18.50
2011,06,03,17,04,18.40
2011,06,03,17,06,18.30
2011,06,03,17,08,18.20
2011,06,03,17,09,18.10
2011,06,03,17,11,18.10
2011,06,03,17,13,18.20
2011,06,03,17,14,18.20
2011,06,03,17,16,18.30
2011,06,03,17,17,18.40
2011,06,03,17,19,18.40
2011,06,03,17,21,18.60
2011,06,03,17,22,18.60
2011,06,03,17,23,18.60
2011,06,03,17,24,18.60
2011,06,03,17,25,18.60
2011,06,03,17,27,18.60
2011,06,03,17,29,18.70
2011,06,03,17,30,18.70
2011,06,03,17,31,18.60
2011,06,03,17,32,18.50
2011,06,03,17,33,18.40
2011,06,03,17,35,18.30
2011,06,03,17,36,18.30
2011,06,03,17,37,18.30
2011,06,03,17,38,18.20
2011,06,03,17,39,18.20
2011,06,03,17,41,18.20
2011,06,03,17,42,18.20
2011,06,03,17,43,18.20
2011,06,03,17,44,18.30
2011,06,03,17,46,18.30
2011,06,03,17,47,18.30
2011,06,03,17,48,18.30
2011,06,03,17,49,18.40
2011,06,03,17,50,18.40
2011,06,03,17,51,18.40
2011,06,03,17,53,18.40
2011,06,03,17,54,18.40
2011,06,03,17,55,18.30
2011,06,03,17,57,18.30
2011,06,03,17,58,18.20
2011,06,03,17,59,18.20
2011,06,03,18,00,18.20
2011,06,03,18,02,18.20
2011,06,03,18,03,18.10
2011,06,03,18,04,18.20
2011,06,03,18,06,18.30
2011,06,03,18,07,18.30
2011,06,03,18,08,18.30
2011,06,03,18,09,18.30
2011,06,03,18,10,18.30
2011,06,03,18,11,18.30
2011,06,03,18,12,18.30
2011,06,03,18,13,18.30
2011,06,03,18,14,18.20
2011,06,03,18,15,18.20
2011,06,03,18,16,18.00
2011,06,03,18,17,17.90
2011,06,03,18,18,17.90
2011,06,03,18,20,17.80
2011,06,03,18,21,17.80
2011,06,03,18,22,17.80
2011,06,03,18,23,17.90
2011,06,03,18,25,17.90
2011,06,03,18,26,17.90
2011,06,03,18,27,17.90
2011,06,03,18,28,17.80
2011,06,03,18,30,17.70
2011,06,03,18,31,17.80
2011,06,03,18,33,17.80
2011,06,03,18,34,17.80
2011,06,03,18,36,17.80
2011,06,03,18,37,17.80
2011,06,03,18,38,17.70
2011,06,03,18,39,17.70
2011,06,03,18,40,17.70
2011,06,03,18,42,17.70
2011,06,03,18,43,17.80
2011,06,03,18,44,17.80
2011,06,03,18,46,17.70
2011,06,03,18,48,17.70
2011,06,03,18,49,17.70
2011,06,03,18,51,17.70
2011,06,03,18,52,17.60
2011,06,03,18,53,17.60
2011,06,03,18,55,17.60
2011,06,03,18,56,17.50
2011,06,03,18,57,17.50
2011,06,03,18,58,17.60
2011,06,03,18,59,17.60
2011,06,03,19,00,17.50
2011,06,03,19,02,17.40
2011,06,03,19,04,17.40
2011,06,03,19,05,17.40
2011,06,03,19,07,17.40
2011,06,03,19,08,17.40
2011,06,03,19,09,17.40
2011,06,03,19,12,17.40
2011,06,03,19,14,17.30
2011,06,03,19,16,17.30
2011,06,03,19,17,17.30
2011,06,03,19,18,17.30
2011,06,03,19,19,17.30
2011,06,03,19,21,17.20
2011,06,03,19,22,17.20
2011,06,03,19,23,17.20
2011,06,03,19,24,17.20
2011,06,03,19,26,17.20
2011,06,03,19,28,17.20
2011,06,03,19,29,17.20
2011,06,03,19,31,17.30
2011,06,03,19,32,17.30
2011,06,03,19,33,17.30
2011,06,03,19,34,17.30
2011,06,03,19,36,17.30
2011,06,03,19,37,17.30
2011,06,03,19,38,17.30
2011,06,03,19,39,17.30
2011,06,03,19,41,17.40
2011,06,03,19,42,17.40
2011,06,03,19,43,17.40
2011,06,03,19,44,17.30
2011,06,03,19,45,17.40
2011,06,03,19,47,17.40
2011,06,03,19,48,17.40
2011,06,03,19,49,17.40
2011,06,03,19,51,17.30
2011,06,03,19,52,17.20
2011,06,03,19,54,17.10
2011,06,03,19,56,17.10
2011,06,03,19,57,17.10
2011,06,03,19,58,17.10
2011,06,03,19,59,17.10
2011,06,03,20,01,17.00
2011,06,03,20,02,16.90
2011,06,03,20,03,16.90
2011,06,03,20,04,16.90
2011,06,03,20,06,16.80
2011,06,03,20,07,16.80
2011,06,03,20,08,16.80
2011,06,03,20,09,16.80
2011,06,03,20,11,16.80
2011,06,03,20,12,16.80
2011,06,03,20,13,16.80
2011,06,03,20,14,16.80
2011,06,03,20,17,16.70
2011,06,03,20,18,16.70
2011,06,03,20,19,16.70
2011,06,03,20,21,16.70
2011,06,03,20,22,16.70
2011,06,03,20,23,16.70
2011,06,03,20,24,16.60
2011,06,03,20,26,16.60
2011,06,03,20,27,16.60
2011,06,03,20,28,16.60
2011,06,03,20,29,16.60
2011,06,03,20,30,16.60
2011,06,03,20,32,16.50
2011,06,03,20,33,16.50
2011,06,03,20,34,16.50
2011,06,03,20,35,16.40
2011,06,03,20,36,16.40
2011,06,03,20,37,16.40
2011,06,03,20,38,16.40
2011,06,03,20,40,16.50
2011,06,03,20,41,16.40
2011,06,03,20,42,16.40
2011,06,03,20,44,16.40
2011,06,03,20,45,16.30
2011,06,03,20,46,16.30
2011,06,03,20,47,16.30
2011,06,03,20,49,16.30
2011,06,03,20,50,16.20
2011,06,03,20,51,16.20
2011,06,03,20,52,16.20
2011,06,03,20,53,16.20
2011,06,03,20,54,16.10
2011,06,03,20,55,16.10
2011,06,03,20,56,16.10
2011,06,03,20,58,16.00
2011,06,03,20,59,15.90
2011,06,03,21,00,15.90
2011,06,03,21,01,15.90
2011,06,03,21,03,15.90
2011,06,03,21,04,15.80
2011,06,03,21,05,15.80
2011,06,03,21,06,15.80
2011,06,03,21,07,15.70
2011,06,03,21,09,15.70
2011,06,03,21,10,15.70
2011,06,03,21,11,15.70
2011,06,03,21,13,15.60
2011,06,03,21,14,15.60
2011,06,03,21,15,15.50
2011,06,03,21,16,15.50
2011,06,03,21,18,15.40
2011,06,03,21,19,15.40
2011,06,03,21,20,15.30
2011,06,03,21,22,15.30
2011,06,03,21,23,15.30
2011,06,03,21,24,15.20
2011,06,03,21,26,15.20
2011,06,03,21,27,15.20
2011,06,03,21,28,15.10
2011,06,03,21,29,15.10
2011,06,03,21,31,15.10
2011,06,03,21,32,15.00
2011,06,03,21,33,14.90
2011,06,03,21,34,14.90
2011,06,03,21,35,14.90
2011,06,03,21,36,14.90
2011,06,03,21,37,14.80
2011,06,03,21,38,14.80
2011,06,03,21,39,14.80
2011,06,03,21,41,14.70
2011,06,03,21,42,14.70
2011,06,03,21,43,14.70
2011,06,03,21,44,14.60
2011,06,03,21,46,14.60
2011,06,03,21,47,14.60
2011,06,03,21,48,14.50
2011,06,03,21,50,14.40
2011,06,03,21,51,14.40
2011,06,03,21,52,14.30
2011,06,03,21,53,14.30
2011,06,03,21,55,14.30
2011,06,03,21,56,14.20
2011,06,03,21,57,14.20
2011,06,03,21,58,14.20
2011,06,03,21,59,14.20
2011,06,03,22,01,14.10
2011,06,03,22,02,14.10
2011,06,03,22,03,14.10
2011,06,03,22,04,14.10
2011,06,03,22,06,14.00